Location: Amsterdam
(30.7274°N, 84.4357°W)
Time: 19:12:38
(UTC+00:00)

Altair - Pass Details

Date: 11 August 2024
Orbit: 1501 x 1682 km, 47.2° (Epoch: 07 September)

Event Time Altitude Azimuth Distance (km) Brightness Sun altitude
Rises 15:57:08 0° 216° (SW) 4,917 10.1 61.1°
Reaches altitude 10° 16:00:21 10° 214° (SSW) 3,922 9.7 61.7°
Maximum altitude 16:10:15 65° 135° (SE) 1,781 10.9 63.6°
Drops below altitude 10° 16:19:52 10° 56° (NE) 3,818 9.8 65.3°
Sets 16:22:57 0° 54° (NE) 4,780 10.2 65.8°
